Tracking 28790 objects as of 19-Apr-2024
HD Live streaming from Space Station
objects crossing your sky now

SUNSTORM

Track SUNSTORM now!
10-day predictions


NORAD ID: 49068
Int'l Code: 2021-073C
Perigee: 438.3 km
Apogee: 457.7 km
Inclination: 97.4 °
Period: 93.4 minutes
Semi major axis: 6819 km
RCS: Unknown
Launch date: August 17, 2021
Source: (FIN)
Launch site: FRENCH GUIANA (FRGUI)
Your satellite tracking list
Your tracking list is empty




NASA's NSSDC Master Catalog

Two Line Element Set (TLE):
1 49068U 21073C   24110.43232641  .00119451  00000-0  27771-2 0  9990
2 49068  97.4480 189.0103 0014203 114.1296 246.1438 15.41771327147948
Source of the keplerian elements: AFSPC